Powrót do katalogu

ATLAS 5 CENTAUR R/B

AktywnyMEO
NORAD 41020·ROCKET BODY·🇺🇸 United States

Wystrzelony Oct 31, 2015 z Cape Canaveral Space Force Station

Loading…

Następne Przeloty (najbliższe 24 godziny)

TLE

ŚwieżeSource: Space-Track

Epoka: Sep 12, 2026, 16:23 UTC

1 41020U 15062B   26255.68283435 -.00000070  00000-0  00000-0 0  9998
2 41020  57.3772  44.4691 0164583 338.3828  20.9233  1.90405951 75588

Śledź ATLAS 5 CENTAUR R/B w czasie rzeczywistym z AllMySat

Download on the App Store